Simultaneous Nadir Overpasses (SNOs) Predictions

Prediction of SNOs between AQUA and NPP Satellite Orbit:

Table of predicted SNOs for the next 14.0 days since TLE Epoch: 8/28/2021
Index Date (AQUA) Time (AQUA) Lat,Lon (AQUA) SZA (AQUA ) Date (NPP) Time (NPP) Lat,Lon (NPP) SZA (NPP ) Distance(km) Time Diff (sec)
1 08/28/2021 21:48:44 75.48, 90.35 88.67 08/28/2021 21:48:34 75.48, 90.34 88.68 0.31 10
2 08/28/2021 22:37:52 -76.45, -99.05 92.44 08/28/2021 22:38:59 -76.44, -99.10 92.48 1.57 67
3 08/31/2021 13:16:08 -74.52, 36.05 89.37 08/31/2021 13:15:07 -74.51, 36.00 89.31 1.61 61
4 08/31/2021 14:05:06 75.88,-152.62 89.12 08/31/2021 14:05:22 75.88,-152.62 89.10 0.12 16
5 09/03/2021 05:32:29 -74.97, 153.07 88.97 09/03/2021 05:31:54 -74.97, 153.02 88.93 1.31 35
6 09/03/2021 06:21:28 76.26, -35.54 89.58 09/03/2021 06:22:10 76.27, -35.52 89.54 0.69 42
7 09/05/2021 21:48:47 -75.51, -89.59 88.65 09/05/2021 21:48:38 -75.51, -89.60 88.64 0.37 9
8 09/05/2021 22:37:48 76.68, 81.74 90.02 09/05/2021 22:38:56 76.69, 81.82 89.94 2.06 68
9 09/08/2021 13:16:10 74.42,-144.18 93.47 09/08/2021 13:15:11 74.42,-144.25 93.54 2.33 59



Historial Predications of SNOs between AQUA and NPP
